Tracking 24122 objects as of 9-Dec-2021
HD Live streaming from Space Station
objects crossing your sky now

EUTELSAT 1-F4 (ECS 4)

Track EUTELSAT 1-F4 (ECS 4) now!
EUTELSAT 1-F4 (ECS 4) is classified as:


NORAD ID: 18351
Int'l Code: 1987-078B
Perigee: 36,195.1 km
Apogee: 36,290.9 km
Inclination: 15.0 °
Period: 1,459.1 minutes
Semi major axis: 42614 km
RCS: 3.9811 m2 (large)
Launch date: September 16, 1987
Source: European Telecommunications Satellite Organization (EUTE)
Launch site: FRENCH GUIANA (FRGUI)
aabbcc
Your satellite tracking list
Your tracking list is empty




NASA's NSSDC Master Catalog

Two Line Element Set (TLE):
1 18351U 87078B   21342.75822802 -.00000180  00000-0  00000-0 0  9994
2 18351  14.9794 354.3981 0011234   7.5333 356.0955  0.98690237110468
Source of the keplerian elements: AFSPC